EW6754 Weather Reports


Display with metric or nautical units.
time (UTC)temp
F
wind
direction
speed
MPH
gust
MPH
rain 1hr
in
rain 24hr
in
rain mn
in
humidity
%
barometer
mb
20260904083019 75 224 0.0 0.0 0.00 0.00 0.00 73 1013.5
20260904081616 75 224 0.0 0.0 0.00 0.00 0.00 72 1013.4
20260904080014 75 224 0.0 0.0 0.00 0.00 0.00 71 1013.5
20260904074513 75 224 0.0 0.0 0.00 0.00 0.00 73 1013.5
20260904073016 75 190 0.0 0.0 0.00 0.00 0.00 73 1013.5
20260904071528 75 172 0.0 0.0 0.00 0.00 0.00 73 1013.5
20260904070012 75 195 0.0 0.0 0.00 0.00 0.00 75 1013.7
20260904064508 76 160 0.0 0.0 0.00 0.00 0.00 75 1013.7
20260904063008 76 176 0.0 0.0 0.00 0.00 0.00 74 1013.7
20260904061507 76 218 0.0 0.0 0.00 0.00 0.00 73 1013.7
20260904060004 76 213 0.0 0.0 0.00 0.00 0.00 74 1013.9
20260904054502 76 209 0.0 0.0 0.00 0.00 0.00 76 1014.0
20260904053059 77 143 0.0 0.0 0.00 0.00 0.00 77 1013.9
20260904051556 77 176 0.0 0.0 0.00 0.00 0.00 77 1014.2
20260904050052 77 175 0.0 0.0 0.00 0.00 0.00 78 1014.5
20260904044555 77 131 0.0 0.0 0.00 0.00 0.00 78 1014.5
20260904043050 78 169 0.0 0.0 0.00 0.00 0.00 79 1014.7
20260904041547 78 200 0.0 0.0 0.00 0.00 0.00 79 1014.7
20260904040044 78 150 0.0 0.0 0.00 0.00 0.00 79 1014.9
20260904034558 78 206 0.0 0.0 0.00 0.00 0.00 79 1014.9
20260904033043 79 192 0.0 0.0 0.00 0.00 0.00 79 1015.0
20260904031542 79 219 0.0 0.0 0.00 0.00 0.00 79 1014.9
20260904030041 79 181 0.0 0.0 0.00 0.00 0.00 80 1014.9
20260904024541 80 216 0.0 0.0 0.00 0.00 0.00 80 1014.9
20260904023040 81 153 0.0 0.0 0.00 0.00 0.00 80 1014.8
20260904021547 81 155 0.0 0.0 0.00 0.00 0.00 80 1014.7
20260904020041 81 134 0.0 0.0 0.00 0.00 0.00 79 1014.7
20260904014545 82 105 0.0 0.0 0.00 0.00 0.00 79 1014.5
20260904013040 82 142 0.0 0.0 0.00 0.00 0.00 79 1014.5
20260904011543 82 131 0.0 0.0 0.00 0.00 0.00 78 1014.5
20260904010050 82 120 0.0 0.0 0.00 0.00 0.00 77 1014.2
20260904004555 83 132 0.0 0.0 0.00 0.00 0.00 77 1014.2
20260904003037 83 141 0.0 0.0 0.00 0.00 0.00 76 1014.2
20260904001537 83 103 0.0 0.0 0.00 0.00 0.00 76 1014.0
20260904000035 83 113 0.0 0.0 0.00 0.00 0.00 76 1014.0
20260903234541 83 132 0.0 0.0 0.00 0.00 0.00 74 1013.8
20260903233034 84 150 0.0 0.0 0.00 0.00 0.00 76 1013.9
20260903231534 84 129 0.0 0.0 0.00 0.00 0.00 75 1013.8
20260903230033 84 140 0.0 0.0 0.00 0.00 0.00 73 1013.5
20260903224533 85 111 0.0 0.0 0.00 0.00 0.00 72 1013.3
20260903223037 85 117 0.0 0.0 0.00 0.00 0.00 71 1013.2
20260903221530 86 98 0.0 0.0 0.00 0.00 0.00 71 1012.9
20260903220038 87 131 0.0 0.0 0.00 0.05 0.00 69 1012.8
20260903214528 87 127 0.0 0.0 0.00 0.05 0.00 67 1012.8
20260903213036 88 96 0.0 0.0 0.00 0.05 0.00 65 1012.8
20260903211555 88 94 0.0 0.0 0.00 0.05 0.00 64 1012.8
20260903210029 89 120 0.0 0.0 0.00 0.05 0.00 63 1012.7
20260903204525 89 115 0.0 7.0 0.00 0.05 0.00 61 1012.7
20260903203026 90 103 0.0 5.0 0.00 0.05 0.00 60 1012.5
20260903201524 91 135 0.0 0.0 0.00 0.05 0.00 58 1012.4
20260903200023 92 81 0.0 0.0 0.00 0.05 0.00 56 1012.4
20260903194522 92 190 0.0 0.0 0.00 0.05 0.00 54 1012.5
20260903193022 92 159 0.0 8.0 0.00 0.05 0.00 51 1012.4
20260903191523 92 136 0.0 0.0 0.00 0.05 0.00 54 1012.5
20260903190020 92 121 0.0 0.0 0.00 0.05 0.00 54 1012.6
20260903184518 92 134 0.0 0.0 0.00 0.05 0.00 56 1012.7
20260903183017 92 127 0.0 0.0 0.00 0.05 0.00 54 1012.7
20260903181518 93 118 0.0 0.0 0.00 0.05 0.00 53 1012.9
20260903180018 93 100 0.0 0.0 0.00 0.05 0.00 53 1012.8
20260903174532 93 117 0.0 0.0 0.00 0.05 0.00 52 1013.1
20260903173022 93 126 0.0 0.0 0.00 0.05 0.00 53 1013.0
20260903171509 92 130 0.0 0.0 0.00 0.05 0.00 54 1013.2
20260903170007 92 104 0.0 0.0 0.00 0.05 0.00 55 1013.4
20260903164505 92 118 0.0 0.0 0.00 0.05 0.00 55 1013.7
20260903163003 92 92 0.0 0.0 0.00 0.05 0.00 57 1014.0
20260903161507 91 107 0.0 0.0 0.00 0.05 0.00 57 1014.2
20260903160002 90 91 0.0 8.0 0.00 0.05 0.00 59 1014.3
20260903154501 92 203 0.0 0.0 0.00 0.05 0.00 58 1014.4
20260903153058 91 106 0.0 0.0 0.00 0.05 0.00 59 1014.6
20260903151600 90 125 0.0 0.0 0.00 0.05 0.00 61 1014.8
20260903150112 90 79 0.0 0.0 0.00 0.05 0.00 62 1014.9
20260903144556 89 99 0.0 0.0 0.00 0.05 0.00 62 1015.0
20260903143054 89 117 0.0 0.0 0.00 0.05 0.00 64 1015.1
20260903141550 88 89 0.0 0.0 0.00 0.05 0.00 65 1015.0
20260903140049 87 106 0.0 0.0 0.00 0.05 0.00 67 1014.9
20260903134546 87 103 0.0 0.0 0.00 0.05 0.00 69 1015.0
20260903133051 86 68 0.0 7.0 0.00 0.05 0.00 73 1015.0
20260903131552 85 102 0.0 0.0 0.00 0.05 0.00 75 1014.9
20260903130044 84 119 0.0 4.0 0.00 0.05 0.00 76 1014.9
20260903124541 84 77 0.0 0.0 0.00 0.05 0.00 79 1014.7
20260903123039 84 103 0.0 0.0 0.00 0.05 0.00 79 1014.7
20260903121541 85 179 0.0 0.0 0.00 0.05 0.00 79 1014.6
20260903120035 83 177 0.0 0.0 0.00 0.05 0.00 80 1014.6
20260903114531 81 161 0.0 0.0 0.00 0.05 0.00 80 1014.5
20260903113032 81 181 0.0 0.0 0.00 0.05 0.00 81 1014.5
20260903111551 81 134 0.0 0.0 0.00 0.05 0.00 81 1014.4
20260903110024 79 179 0.0 0.0 0.00 0.05 0.00 73 1014.3
20260903104522 77 179 0.0 0.0 0.00 0.05 0.00 64 1014.1
20260903103018 76 179 0.0 0.0 0.00 0.05 0.00 53 1014.1
20260903101517 76 179 0.0 0.0 0.00 0.05 0.00 53 1014.1
20260903100017 76 179 0.0 0.0 0.00 0.05 0.00 54 1014.0
20260903094515 76 179 0.0 0.0 0.00 0.05 0.00 54 1013.9
20260903093025 75 178 0.0 0.0 0.00 0.05 0.00 54 1013.6
20260903091518 76 190 0.0 0.0 0.00 0.05 0.00 55 1013.7
20260903090009 76 191 0.0 0.0 0.00 0.05 0.00 54 1013.7
20260903084507 76 191 0.0 0.0 0.00 0.05 0.00 56 1013.6